Time,TemperatureF,DewpointF,PressureIn,WindDirection,WindDirectionDegrees,WindSpeedMPH,WindSpeedGustMPH,Humidity,HourlyPrecipIn,Conditions,Clouds,dailyrainin,SolarRadiationWatts/m^2,SoftwareType,DateUTC
2013-04-25 00:03:00,46.0,43.0,-100.00,WNW,292,6.0,12.0,90,0.00,,,0.26,0.000000,,2013-04-25 04:03:00,
2013-04-25 00:33:00,44.0,42.0,-100.00,NNW,328,5.0,14.0,94,0.00,,,0.26,0.000000,,2013-04-25 04:33:00,
2013-04-25 00:43:00,44.0,42.0,-100.00,NNW,328,5.0,14.0,94,0.00,,,0.26,0.000000,,2013-04-25 04:43:00,
2013-04-25 00:52:00,44.0,42.0,-100.00,NNW,328,5.0,14.0,94,0.00,,,0.26,0.000000,,2013-04-25 04:52:00,
2013-04-25 01:03:00,44.0,42.0,-100.00,NNW,328,5.0,14.0,94,0.00,,,0.26,0.000000,,2013-04-25 05:03:00,
2013-04-25 01:32:00,44.0,42.0,-100.00,WNW,296,4.0,12.0,92,0.00,,,0.26,0.000000,,2013-04-25 05:32:00,
2013-04-25 01:42:00,44.0,42.0,-100.00,WNW,296,4.0,12.0,92,0.00,,,0.26,0.000000,,2013-04-25 05:42:00,
2013-04-25 01:52:00,44.0,42.0,-100.00,WNW,296,4.0,12.0,92,0.00,,,0.26,0.000000,,2013-04-25 05:52:00,
2013-04-25 02:02:00,44.0,42.0,-100.00,WNW,296,4.0,12.0,92,0.00,,,0.26,0.000000,,2013-04-25 06:02:00,
2013-04-25 03:32:00,43.0,40.0,-100.00,ESE,117,4.0,11.0,89,-99.99,,,0.26,0.000000,,2013-04-25 07:32:00,
2013-04-25 03:42:00,43.0,40.0,-100.00,ESE,117,4.0,11.0,89,-99.99,,,0.26,0.000000,,2013-04-25 07:42:00,
2013-04-25 03:52:00,43.0,40.0,-100.00,ESE,117,4.0,11.0,89,-99.99,,,0.26,0.000000,,2013-04-25 07:52:00,
2013-04-25 04:02:00,43.0,40.0,-100.00,ESE,117,4.0,11.0,89,-99.99,,,0.26,0.000000,,2013-04-25 08:02:00,
2013-04-25 04:32:00,42.0,39.0,-100.00,SE,138,4.0,14.0,88,0.00,,,0.26,0.000000,,2013-04-25 08:32:00,
2013-04-25 04:42:00,42.0,39.0,-100.00,SE,138,4.0,14.0,88,0.00,,,0.26,0.000000,,2013-04-25 08:42:00,
2013-04-25 04:52:00,42.0,39.0,-100.00,SE,138,4.0,14.0,88,0.00,,,0.26,0.000000,,2013-04-25 08:52:00,
2013-04-25 05:01:00,42.0,39.0,-100.00,SE,138,4.0,14.0,88,0.00,,,0.26,0.000000,,2013-04-25 09:01:00,
2013-04-25 05:33:00,40.0,37.0,-100.00,East,86,1.0,8.0,88,0.00,,,0.26,0.000000,,2013-04-25 09:33:00,
2013-04-25 05:42:00,40.0,37.0,-100.00,East,86,1.0,8.0,88,0.00,,,0.26,0.000000,,2013-04-25 09:42:00,
2013-04-25 05:53:00,40.0,37.0,-100.00,East,86,1.0,8.0,88,0.00,,,0.26,0.000000,,2013-04-25 09:53:00,
2013-04-25 06:03:00,40.0,37.0,-100.00,East,86,1.0,8.0,88,0.00,,,0.26,0.000000,,2013-04-25 10:03:00,
2013-04-25 06:33:00,38.0,36.0,-100.00,North,350,2.0,6.0,93,0.00,,,0.26,0.000000,,2013-04-25 10:33:00,
2013-04-25 06:42:00,38.0,36.0,-100.00,North,350,2.0,6.0,93,0.00,,,0.26,0.000000,,2013-04-25 10:42:00,
2013-04-25 06:53:00,38.0,36.0,-100.00,North,350,2.0,6.0,93,0.00,,,0.26,0.000000,,2013-04-25 10:53:00,
2013-04-25 07:02:00,38.0,36.0,-100.00,North,350,2.0,6.0,93,0.00,,,0.26,0.000000,,2013-04-25 11:02:00,
2013-04-25 07:33:00,36.0,35.0,-100.00,SSE,163,0.0,6.0,95,0.00,,,0.26,2.000000,,2013-04-25 11:33:00,
2013-04-25 07:42:00,36.0,35.0,-100.00,SSE,163,0.0,6.0,95,0.00,,,0.26,2.000000,,2013-04-25 11:42:00,
2013-04-25 07:52:00,36.0,35.0,-100.00,SSE,163,0.0,6.0,95,0.00,,,0.26,2.000000,,2013-04-25 11:52:00,
2013-04-25 08:01:00,36.0,35.0,-100.00,SSE,163,0.0,6.0,95,0.00,,,0.26,2.000000,,2013-04-25 12:01:00,
2013-04-25 09:32:00,41.0,40.0,-100.00,SW,224,0.0,2.0,95,-99.99,,,-99.99,157.000000,,2013-04-25 13:32:00,
2013-04-25 09:42:00,41.0,40.0,-100.00,SW,224,0.0,2.0,95,-99.99,,,-99.99,157.000000,,2013-04-25 13:42:00,
2013-04-25 09:53:00,41.0,40.0,-100.00,SW,224,0.0,2.0,95,-99.99,,,-99.99,157.000000,,2013-04-25 13:53:00,
2013-04-25 10:02:00,41.0,40.0,-100.00,SW,224,0.0,2.0,95,-99.99,,,-99.99,157.000000,,2013-04-25 14:02:00,
2013-04-25 10:32:00,48.0,40.0,-100.00,NNW,341,3.0,8.0,75,0.00,,,-99.99,605.000000,,2013-04-25 14:32:00,
2013-04-25 10:42:00,48.0,40.0,-100.00,NNW,341,3.0,8.0,75,0.00,,,-99.99,605.000000,,2013-04-25 14:42:00,
2013-04-25 10:52:00,48.0,40.0,-100.00,NNW,341,3.0,8.0,75,0.00,,,-99.99,605.000000,,2013-04-25 14:52:00,
2013-04-25 11:02:00,48.0,40.0,-100.00,NNW,341,3.0,8.0,75,0.00,,,-99.99,605.000000,,2013-04-25 15:02:00,
2013-04-25 11:33:00,52.0,42.0,-100.00,NW,309,4.0,11.0,68,0.00,,,0.26,826.000000,,2013-04-25 15:33:00,
2013-04-25 11:42:00,52.0,42.0,-100.00,NW,309,4.0,11.0,68,0.00,,,0.26,826.000000,,2013-04-25 15:42:00,
2013-04-25 11:53:00,52.0,42.0,-100.00,NW,309,4.0,11.0,68,0.00,,,0.26,826.000000,,2013-04-25 15:53:00,
2013-04-25 12:02:00,52.0,42.0,-100.00,NW,309,4.0,11.0,68,0.00,,,0.26,826.000000,,2013-04-25 16:02:00,
2013-04-25 12:33:00,56.0,39.0,-100.00,WNW,286,4.0,9.0,53,0.00,,,-99.99,1002.000000,,2013-04-25 16:33:00,
2013-04-25 12:43:00,56.0,39.0,-100.00,WNW,286,4.0,9.0,53,0.00,,,-99.99,1002.000000,,2013-04-25 16:43:00,
2013-04-25 12:53:00,56.0,39.0,-100.00,WNW,286,4.0,9.0,53,0.00,,,-99.99,1002.000000,,2013-04-25 16:53:00,
2013-04-25 13:02:00,56.0,39.0,-100.00,WNW,286,4.0,9.0,53,0.00,,,-99.99,1002.000000,,2013-04-25 17:02:00,
2013-04-25 13:32:00,60.0,34.0,-100.00,North,350,5.0,9.0,38,0.00,,,0.26,1114.000000,,2013-04-25 17:32:00,
2013-04-25 13:42:00,60.0,34.0,-100.00,North,350,5.0,9.0,38,0.00,,,0.26,1114.000000,,2013-04-25 17:42:00,
2013-04-25 13:53:00,60.0,34.0,-100.00,North,350,5.0,9.0,38,0.00,,,0.26,1114.000000,,2013-04-25 17:53:00,
2013-04-25 14:02:00,60.0,34.0,-100.00,North,350,5.0,9.0,38,0.00,,,0.26,1114.000000,,2013-04-25 18:02:00,
2013-04-25 14:32:00,63.0,29.0,-100.00,NW,307,7.0,13.0,28,0.00,,,0.26,1160.000000,,2013-04-25 18:32:00,
2013-04-25 14:43:00,63.0,29.0,-100.00,NW,307,7.0,13.0,28,0.00,,,0.26,1160.000000,,2013-04-25 18:43:00,
2013-04-25 14:53:00,63.0,29.0,-100.00,NW,307,7.0,13.0,28,0.00,,,0.26,1160.000000,,2013-04-25 18:53:00,
2013-04-25 15:02:00,63.0,29.0,-100.00,NW,307,7.0,13.0,28,0.00,,,0.26,1160.000000,,2013-04-25 19:02:00,
2013-04-25 15:32:00,64.0,22.0,-100.00,NNW,334,8.0,13.0,20,0.00,,,0.26,1127.000000,,2013-04-25 19:32:00,
2013-04-25 15:42:00,64.0,22.0,-100.00,NNW,334,8.0,13.0,20,0.00,,,0.26,1127.000000,,2013-04-25 19:42:00,
2013-04-25 15:52:00,64.0,22.0,-100.00,NNW,334,8.0,13.0,20,0.00,,,0.26,1127.000000,,2013-04-25 19:52:00,
2013-04-25 16:02:00,64.0,22.0,-100.00,NNW,334,8.0,13.0,20,0.00,,,0.26,1127.000000,,2013-04-25 20:02:00,
2013-04-25 16:32:00,68.0,25.0,-100.00,WNW,302,7.0,15.0,20,0.00,,,0.19,1023.000000,,2013-04-25 20:32:00,
2013-04-25 16:43:00,68.0,25.0,-100.00,WNW,302,7.0,15.0,20,0.00,,,0.19,1023.000000,,2013-04-25 20:43:00,
2013-04-25 16:52:00,68.0,25.0,-100.00,WNW,302,7.0,15.0,20,0.00,,,0.19,1023.000000,,2013-04-25 20:52:00,
2013-04-25 17:01:00,68.0,25.0,-100.00,WNW,302,7.0,15.0,20,0.00,,,0.19,1023.000000,,2013-04-25 21:01:00,
2013-04-25 17:33:00,65.0,28.0,-100.00,NW,314,8.0,13.0,25,0.00,,,0.10,848.000000,,2013-04-25 21:33:00,
2013-04-25 17:42:00,65.0,28.0,-100.00,NW,314,8.0,13.0,25,0.00,,,0.10,848.000000,,2013-04-25 21:42:00,
2013-04-25 17:53:00,65.0,28.0,-100.00,NW,314,8.0,13.0,25,0.00,,,0.10,848.000000,,2013-04-25 21:53:00,
2013-04-25 18:03:00,65.0,28.0,-100.00,NW,314,8.0,13.0,25,0.00,,,0.10,848.000000,,2013-04-25 22:03:00,
2013-04-25 18:33:00,64.0,21.0,-100.00,NW,308,7.0,16.0,19,0.00,,,0.07,626.000000,,2013-04-25 22:33:00,
2013-04-25 18:42:00,64.0,21.0,-100.00,NW,308,7.0,16.0,19,0.00,,,0.07,626.000000,,2013-04-25 22:42:00,
2013-04-25 18:53:00,64.0,21.0,-100.00,NW,308,7.0,16.0,19,0.00,,,0.07,626.000000,,2013-04-25 22:53:00,
2013-04-25 19:02:00,64.0,21.0,-100.00,NW,308,7.0,16.0,19,0.00,,,0.07,626.000000,,2013-04-25 23:02:00,
2013-04-25 19:32:00,61.0,24.0,-100.00,NNW,338,6.0,17.0,24,0.00,,,0.04,386.000000,,2013-04-25 23:32:00,
2013-04-25 19:42:00,61.0,24.0,-100.00,NNW,338,6.0,17.0,24,0.00,,,0.04,386.000000,,2013-04-25 23:42:00,
2013-04-25 19:52:00,61.0,24.0,-100.00,NNW,338,6.0,17.0,24,0.00,,,0.04,386.000000,,2013-04-25 23:52:00,
2013-04-25 20:01:00,61.0,24.0,-100.00,NNW,338,6.0,17.0,24,0.00,,,0.04,386.000000,,2013-04-26 00:01:00,
2013-04-25 20:32:00,56.0,24.0,-100.00,NW,325,4.0,10.0,29,0.00,,,0.01,120.000000,,2013-04-26 00:32:00,
2013-04-25 20:42:00,56.0,24.0,-100.00,NW,325,4.0,10.0,29,0.00,,,0.01,120.000000,,2013-04-26 00:42:00,
2013-04-25 20:52:00,56.0,24.0,-100.00,NW,325,4.0,10.0,29,0.00,,,0.01,120.000000,,2013-04-26 00:52:00,
2013-04-25 21:01:00,56.0,24.0,-100.00,NW,325,4.0,10.0,29,0.00,,,0.01,120.000000,,2013-04-26 01:01:00,
2013-04-25 21:32:00,52.0,26.0,-100.00,WNW,301,1.0,12.0,36,0.00,,,0.00,3.000000,,2013-04-26 01:32:00,
2013-04-25 21:42:00,52.0,26.0,-100.00,WNW,301,1.0,12.0,36,0.00,,,0.00,3.000000,,2013-04-26 01:42:00,
2013-04-25 21:52:00,52.0,26.0,-100.00,WNW,301,1.0,12.0,36,0.00,,,0.00,3.000000,,2013-04-26 01:52:00,
2013-04-25 22:02:00,52.0,26.0,-100.00,WNW,301,1.0,12.0,36,0.00,,,0.00,3.000000,,2013-04-26 02:02:00,
2013-04-25 22:32:00,47.0,34.0,-100.00,ENE,68,3.0,5.0,61,0.00,,,0.00,0.000000,,2013-04-26 02:32:00,
2013-04-25 22:42:00,47.0,34.0,-100.00,ENE,68,3.0,5.0,61,0.00,,,0.00,0.000000,,2013-04-26 02:42:00,
2013-04-25 22:52:00,47.0,34.0,-100.00,ENE,68,3.0,5.0,61,0.00,,,0.00,0.000000,,2013-04-26 02:52:00,
2013-04-25 23:01:00,47.0,34.0,-100.00,ENE,68,3.0,5.0,61,0.00,,,0.00,0.000000,,2013-04-26 03:01:00,
2013-04-25 23:33:00,43.0,35.0,-100.00,ESE,103,1.0,5.0,72,0.00,,,0.00,0.000000,,2013-04-26 03:33:00,
2013-04-25 23:43:00,43.0,35.0,-100.00,ESE,103,1.0,5.0,72,0.00,,,0.00,0.000000,,2013-04-26 03:43:00,
2013-04-25 23:53:00,43.0,35.0,-100.00,ESE,103,1.0,5.0,72,0.00,,,0.00,0.000000,,2013-04-26 03:53:00,